Wind_Speed
22 22 23 22 19 17 14 14 13 13 11 8 7 6 5 4 2 2 4 9 11 10 9 9 9 9 9 9 9 9 9 9 9 9 10 11 13 13 12 12 12 12 12 12 12 11 11 11 10 10 10 10
24 24 23 22 19 17 15 13 12 13 11 7 6 6 5 4 3 3 4 6 9 10 7 7 8 8 9 10 9 9 9 9 8 9 10 11 12 11 10 11 11 11 11 12 11 11 11 10 10 10 10 10
25 24 23 21 19 17 16 14 14 14 12 9 8 7 6 5 4 4 5 6 9 10 6 5 7 8 9 9 9 9 8 8 8 9 10 10 10 9 9 9 10 10 10 11 11 11 10 10 10 10 10 9
26 25 24 21 19 17 16 15 16 15 13 11 10 9 7 6 6 6 6 8 9 9 7 6 7 7 9 9 9 9 9 9 9 10 10 10 9 9 9 9 9 10 10 10 10 10 10 10 10 10 10 10
27 27 24 22 20 18 17 16 16 15 14 13 12 10 9 7 7 6 7 8 8 8 8 8 8 8 9 9 9 10 10 10 10 10 9 9 9 9 9 9 9 9 10 10 10 10 10 10 10 10 11 11
28 27 24 23 21 18 18 18 17 17 15 14 12 10 9 8 7 6 6 7 7 8 9 10 9 9 10 10 9 10 10 10 10 10 9 9 9 9 9 10 10 10 10 10 10 10 11 11 11 11 11 11
28 27 25 24 21 19 19 19 18 17 16 15 14 12 10 8 7 6 6 7 8 9 10 10 10 10 11 10 7 7 9 10 11 10 9 9 9 9 9 10 10 10 10 11 11 11 11 11 11 11 11 12
28 28 27 26 23 22 21 20 19 18 18 17 15 13 11 9 8 7 6 7 9 10 10 10 11 10 10 10 8 7 9 10 10 10 9 9 9 9 10 10 10 11 11 11 11 11 12 12 12 12 12 12
29 30 29 27 25 23 22 21 20 20 19 18 17 15 12 11 10 9 8 8 9 10 10 11 11 12 11 11 10 10 10 11 10 10 9 9 10 10 10 11 11 11 11 12 12 12 12 12 12 12 12 12
31 31 31 29 27 25 24 22 21 21 20 19 18 15 13 13 12 11 9 9 10 11 11 12 12 13 13 12 12 12 12 12 11 11 10 10 10 11 11 11 12 12 12 12 12 12 13 12 12 12 12 12
34 34 33 32 30 28 26 24 23 22 22 21 19 17 15 16 15 13 11 10 11 12 12 12 13 13 14 13 13 13 13 13 12 11 11 11 11 11 12 12 12 12 12 13 13 13 13 13 13 13 13 12
36 36 36 34 33 30 28 25 24 23 23 23 21 19 18 18 18 15 12 12 12 13 13 12 13 13 14 14 14 14 14 13 13 12 12 12 12 12 12 13 13 13 13 13 13 13 13 13 13 13 13 13
39 39 38 36 35 32 29 27 25 25 24 24 23 21 20 21 20 17 14 14 13 13 13 13 12 13 14 14 15 15 15 14 13 13 12 12 12 12 13 13 13 13 14 14 13 13 13 13 13 13 13 13
42 41 40 38 36 34 31 28 27 26 26 25 24 23 22 23 22 18 16 15 14 14 14 13 12 12 13 14 15 15 15 14 14 13 13 13 13 13 13 13 14 14 14 14 14 13 13 13 13 13 13 13
43 43 42 39 37 36 33 30 28 28 29 27 25 24 24 24 23 20 17 16 16 14 14 13 12 12 12 13 14 15 15 15 14 14 14 14 14 14 14 14 14 14 14 14 14 14 14 13 13 13 13 13
44 44 43 41 39 37 35 32 29 30 31 30 27 25 24 25 24 22 19 18 17 16 15 14 13 12 12 12 13 15 15 15 15 15 15 14 14 14 14 15 15 15 15 14 14 14 14 14 14 14 14 14
46 45 44 43 41 39 37 34 31 31 32 31 29 26 25 26 26 23 20 19 19 17 16 14 14 13 12 12 13 14 15 16 16 15 15 15 15 15 15 15 15 15 15 15 15 15 15 15 15 15 15 15
48 47 46 45 43 41 39 37 34 33 32 33 32 29 27 27 27 25 22 21 20 19 17 16 15 14 13 12 13 14 15 16 16 16 15 15 15 15 16 16 16 16 16 16 15 15 15 15 15 15 15 15
50 49 48 46 45 44 43 40 37 35 33 33 34 32 29 29 29 27 24 22 21 20 19 17 17 16 14 13 13 14 14 15 16 16 16 16 16 16 17 17 17 17 17 17 16 16 16 16 16 16 16 16
51 50 49 48 47 47 46 42 39 37 34 33 35 34 31 31 31 28 25 23 21 21 20 19 18 17 16 14 14 14 14 14 15 16 17 16 17 17 17 17 17 17 17 17 17 17 17 17 17 17 17 17
51 51 50 50 49 48 48 45 41 39 36 34 35 36 34 33 32 30 26 24 22 22 22 20 19 18 17 16 15 15 14 14 15 16 17 17 17 17 17 17 17 17 17 17 17 17 17 17 18 18 18 18
51 50 51 51 50 49 49 47 44 42 39 36 36 37 36 34 34 32 28 25 24 24 23 22 21 20 19 18 17 16 15 15 15 16 17 18 18 18 18 18 18 18 18 18 18 18 18 18 18 19 19 19
49 50 51 51 51 51 51 50 47 46 43 38 38 39 37 34 35 36 32 29 27 26 26 24 24 22 21 20 19 18 17 17 17 17 17 17 18 18 19 19 19 18 18 18 19 19 19 19 19 19 19 19
47 49 50 51 52 52 52 51 49 48 46 41 39 41 40 36 35 36 33 32 31 29 28 27 26 25 23 22 21 20 20 19 18 17 17 17 17 18 19 20 19 19 19 19 19 20 20 20 20 20 21 21
45 47 49 51 52 53 53 52 51 51 50 46 42 42 43 41 38 36 34 34 35 32 30 29 28 27 25 24 23 22 21 21 20 19 18 17 17 17 18 20 20 20 19 19 20 20 21 21 21 21 22 23
45 46 48 50 51 52 53 52 52 53 51 47 45 42 43 44 42 39 39 38 37 35 32 32 30 28 27 25 24 24 24 24 23 22 21 20 19 19 19 20 21 21 20 20 20 19 18 19 22 23 24 24
44 46 47 48 49 49 48 49 50 52 50 48 47 44 44 47 44 42 42 40 39 39 36 34 31 31 30 28 27 27 27 27 26 25 24 23 22 21 21 22 22 22 22 21 20 18 15 14 15 20 25 27
44 44 46 46 47 48 48 48 48 49 50 50 50 47 45 47 47 46 44 40 40 40 40 37 34 34 33 30 29 29 29 29 28 27 26 25 24 24 24 24 23 22 23 23 21 18 16 14 12 14 17 22
42 43 45 46 46 47 47 47 47 48 49 50 50 49 46 46 47 49 47 45 43 42 41 38 36 37 35 33 32 32 32 32 30 29 28 27 26 26 26 25 25 24 23 24 24 20 15 13 13 13 12 13
38 42 43 44 46 47 47 47 48 49 50 50 49 47 46 45 46 48 47 46 46 46 43 39 39 41 39 36 35 34 34 33 33 32 31 29 29 29 27 26 28 28 26 24 25 26 24 20 16 13 12 13
36 39 41 43 46 47 48 48 49 50 49 49 48 47 46 44 45 47 47 45 45 47 46 42 43 46 42 38 37 37 36 36 34 33 32 32 31 31 29 29 31 31 28 28 28 28 29 29 27 21 17 16
Wind_Direction
198 195 191 192 196 202 203 204 195 183 189 185 171 176 174 177 187 182 174 160 155 158 155 150 143 142 143 138 135 130 128 125 122 126 130 135 139 140 143 148 149 149 150 150 151 151 152 152 148 144 140 138
192 193 195 199 202 208 209 206 201 199 206 206 196 199 205 211 216 208 200 181 164 164 167 160 154 154 150 143 142 139 136 135 134 137 141 145 145 146 152 157 158 158 158 157 158 157 158 156 153 149 145 145
195 196 199 204 207 211 211 206 205 209 210 205 205 207 214 221 220 216 212 208 191 189 201 187 172 166 156 151 149 147 146 145 147 151 153 155 153 156 162 165 166 166 166 164 164 163 163 160 159 155 151 151
196 195 198 203 208 211 210 210 212 214 209 206 211 208 211 217 219 221 219 220 215 215 226 219 204 184 165 159 158 158 157 155 156 160 161 160 159 165 170 172 173 171 170 169 169 167 167 165 163 161 157 156
193 192 199 203 204 207 208 213 217 215 210 212 214 207 207 215 223 226 223 225 220 218 225 228 226 207 180 168 173 174 171 167 164 165 165 163 166 173 175 175 176 175 174 172 171 170 169 168 166 165 162 161
197 199 205 204 202 205 209 214 218 217 215 217 216 209 208 215 224 227 223 224 215 211 220 228 230 218 194 187 188 184 182 179 172 171 169 169 175 178 179 179 178 176 176 174 172 171 169 168 166 166 165 163
201 206 209 209 209 211 213 217 220 220 218 217 216 212 212 218 224 227 224 224 218 217 223 227 230 224 210 211 208 189 191 187 179 176 174 178 181 182 182 181 180 178 176 175 172 170 168 166 165 165 165 164
205 209 210 212 215 216 219 223 225 222 219 216 214 213 214 221 227 230 227 226 223 223 227 228 229 228 221 223 219 200 198 193 185 182 182 186 186 185 184 182 181 178 175 174 171 169 167 165 164 164 164 164
211 212 211 213 215 219 225 229 229 223 219 215 213 213 216 224 229 233 232 230 228 225 227 226 224 224 220 219 216 206 201 198 193 188 188 190 189 187 185 183 180 177 175 173 171 169 166 164 163 163 164 164
218 216 216 218 217 220 226 229 229 224 219 215 213 215 221 232 233 233 234 232 231 227 225 226 222 221 218 216 213 208 204 201 196 192 193 192 191 189 185 184 180 178 176 173 171 169 167 166 165 164 164 165
224 225 224 223 224 225 226 227 226 224 220 216 217 220 230 241 240 234 236 235 232 228 226 226 224 221 218 214 211 210 207 202 198 195 195 194 192 190 187 185 182 180 177 175 173 171 170 169 168 167 167 168
226 227 227 225 227 227 227 227 225 224 221 220 221 225 234 243 241 235 235 237 234 230 227 226 224 221 218 214 211 210 209 204 200 198 197 196 195 192 190 187 184 182 180 178 176 175 174 172 172 171 171 172
225 226 226 226 227 227 229 229 227 227 225 224 225 229 238 241 239 235 237 240 235 231 228 227 225 222 219 215 212 211 210 206 203 202 200 199 198 196 194 191 188 185 183 182 181 181 180 178 177 176 176 176
225 225 225 226 228 230 232 231 229 229 227 227 230 235 240 240 238 235 239 240 235 232 230 228 225 223 221 217 215 213 211 209 206 205 204 202 202 201 199 196 193 190 189 187 186 186 186 186 184 183 182 181
226 225 225 227 230 234 236 235 232 229 227 228 233 236 238 239 238 236 237 236 233 233 231 230 227 225 224 220 217 215 214 212 211 209 207 206 205 205 204 202 200 197 195 193 192 192 192 193 192 190 189 187
226 227 228 230 231 234 237 237 235 232 230 229 232 235 235 237 237 235 236 235 233 235 235 233 230 228 227 224 220 218 217 215 215 213 211 211 209 210 209 207 206 204 202 200 199 198 197 198 197 197 195 194
228 229 230 232 233 234 237 237 237 237 234 231 231 233 234 237 237 235 236 234 234 236 236 235 232 230 229 227 224 221 220 219 218 217 215 215 214 215 214 213 212 210 210 208 206 205 203 203 202 202 201 199
229 230 231 232 233 234 236 236 237 239 239 235 233 233 233 235 236 235 234 234 233 235 236 235 233 232 229 228 227 226 224 223 222 221 219 219 218 219 218 217 216 215 215 214 212 211 209 209 207 206 206 204
231 232 232 232 232 233 234 235 237 238 239 239 235 232 232 233 235 234 234 234 234 236 237 237 235 233 232 229 229 229 227 226 226 225 223 222 221 221 222 222 221 220 219 218 217 215 214 213 212 211 210 209
234 233 233 233 233 233 233 233 237 238 238 242 239 232 232 233 234 233 234 233 234 239 240 238 237 235 234 232 231 232 230 229 229 229 227 226 225 225 226 226 226 226 225 223 221 219 219 217 215 215 214 213
235 235 233 233 233 234 233 232 237 239 239 242 242 236 232 233 234 233 233 233 235 240 242 240 238 237 235 233 233 234 233 232 231 232 231 230 228 227 228 229 230 230 229 228 226 224 223 221 219 219 217 216
237 236 235 234 234 234 233 232 236 240 239 241 245 241 234 232 233 232 231 232 234 239 241 240 239 238 236 234 235 235 235 236 234 233 233 233 231 230 230 231 232 232 232 232 231 230 228 226 224 223 221 220
239 237 235 235 233 232 232 232 235 237 237 240 246 244 238 235 236 234 232 232 233 236 239 239 239 238 236 235 236 237 237 238 238 237 237 238 236 234 233 233 234 234 234 234 234 234 234 232 230 227 226 224
239 238 236 234 232 231 231 233 236 237 236 238 246 247 240 235 238 237 236 237 235 234 236 238 239 237 235 236 237 239 241 242 243 243 243 243 241 239 238 237 237 236 236 237 238 239 238 237 236 234 232 229
238 238 235 234 234 234 235 236 237 238 237 237 242 247 242 236 235 235 235 238 237 235 236 238 238 237 236 237 240 243 245 245 245 244 243 242 241 240 240 240 238 238 238 239 240 241 243 242 240 239 237 235
239 237 236 237 238 239 241 241 241 241 241 243 244 245 247 242 238 238 235 236 237 236 235 237 239 239 238 238 242 245 245 245 244 243 242 241 241 240 240 240 239 236 236 238 240 242 245 248 246 244 241 238
241 241 241 242 243 244 245 246 246 246 245 249 248 245 249 246 241 241 241 240 241 238 235 236 241 241 239 239 243 245 246 246 244 243 242 242 243 243 242 243 242 238 236 237 237 237 237 241 244 247 246 242
242 244 244 245 245 245 246 245 246 246 245 247 245 243 248 249 243 239 239 240 242 243 239 236 239 240 238 238 242 244 246 246 246 245 245 245 245 245 245 246 246 243 240 237 233 231 232 231 230 238 247 245
241 241 241 242 241 239 238 239 241 242 242 243 243 242 245 249 248 244 241 240 239 241 242 240 240 241 240 239 240 242 245 246 247 247 248 248 247 248 248 249 251 249 244 241 237 232 226 221 224 231 235 237
242 240 239 238 238 236 236 237 239 241 243 245 246 247 247 248 251 248 245 246 245 241 240 241 243 241 238 238 239 241 244 246 247 248 248 249 248 249 249 250 251 250 247 245 243 237 231 229 229 229 226 226
245 242 239 238 239 241 241 242 243 246 248 250 251 252 252 252 252 250 245 246 249 247 243 243 245 242 238 238 240 242 243 245 247 249 251 250 249 250 249 247 247 250 250 246 244 242 240 242 241 237 235 232
Height
1540 1541 1542 1543 1544 1545 1547 1549 1550 1551 1552 1553 1554 1555 1556 1557 1557 1557 1558 1559 1559 1559 1559 1559 1560 1560 1560 1560 1560 1561 1561 1561 1561 1561 1560 1560 1560 1561 1562 1562 1563 1563 1564 1564 1565 1565 1566 1566 1566 1567 1567 1567
1539 1541 1542 1542 1543 1545 1546 1548 1549 1550 1551 1553 1554 1555 1556 1557 1557 1558 1558 1558 1558 1558 1558 1559 1559 1559 1560 1560 1560 1560 1560 1560 1560 1560 1559 1560 1560 1561 1562 1562 1563 1563 1564 1564 1565 1565 1566 1566 1567 1567 1567 1568
1539 1540 1541 1542 1543 1544 1545 1547 1548 1550 1551 1552 1554 1555 1556 1556 1557 1558 1558 1558 1558 1557 1557 1558 1559 1559 1559 1559 1559 1559 1559 1560 1559 1559 1559 1559 1560 1561 1562 1562 1563 1563 1564 1564 1565 1565 1566 1566 1567 1567 1567 1568
1537 1539 1540 1541 1542 1543 1544 1546 1547 1549 1550 1552 1553 1555 1555 1556 1556 1557 1557 1557 1557 1557 1557 1558 1559 1559 1559 1558 1558 1558 1558 1559 1559 1559 1559 1559 1560 1561 1561 1562 1562 1563 1563 1564 1564 1565 1565 1566 1566 1567 1567 1568
1536 1538 1538 1539 1541 1542 1543 1545 1546 1548 1550 1551 1552 1554 1554 1555 1555 1556 1556 1556 1557 1557 1557 1557 1558 1558 1558 1558 1557 1557 1557 1558 1558 1558 1559 1559 1560 1561 1561 1561 1562 1562 1563 1563 1564 1564 1565 1565 1566 1566 1567 1568
1534 1536 1537 1538 1540 1541 1542 1544 1545 1547 1548 1550 1551 1552 1553 1554 1554 1555 1555 1556 1556 1556 1556 1556 1557 1557 1558 1557 1556 1556 1557 1557 1558 1558 1558 1559 1560 1560 1561 1561 1561 1561 1562 1562 1563 1564 1564 1565 1565 1566 1567 1567
1532 1533 1535 1537 1538 1539 1541 1542 1544 1546 1547 1549 1550 1551 1552 1552 1553 1554 1554 1555 1555 1555 1555 1556 1556 1556 1557 1557 1556 1556 1557 1557 1557 1558 1558 1559 1559 1560 1560 1560 1561 1561 1561 1562 1562 1563 1564 1564 1565 1565 1566 1567
1530 1532 1534 1535 1536 1538 1539 1541 1543 1544 1545 1547 1548 1549 1550 1551 1552 1553 1553 1554 1554 1554 1555 1555 1555 1555 1556 1556 1556 1556 1556 1557 1557 1557 1558 1558 1559 1559 1560 1560 1560 1560 1561 1561 1562 1562 1563 1563 1564 1565 1565 1566
1529 1530 1532 1534 1535 1536 1538 1539 1541 1542 1544 1545 1547 1548 1549 1549 1550 1551 1552 1552 1553 1553 1554 1554 1554 1554 1555 1555 1555 1556 1556 1556 1556 1557 1557 1558 1558 1559 1559 1559 1559 1560 1560 1560 1561 1562 1562 1563 1563 1564 1565 1565
1527 1529 1530 1532 1534 1535 1536 1538 1539 1541 1542 1543 1545 1546 1547 1548 1549 1549 1550 1551 1551 1552 1552 1553 1553 1553 1553 1554 1554 1555 1555 1555 1555 1556 1556 1557 1557 1558 1558 1558 1559 1559 1559 1560 1560 1561 1561 1562 1563 1563 1564 1564
1525 1526 1528 1530 1531 1533 1534 1536 1537 1539 1540 1542 1543 1544 1545 1546 1547 1548 1548 1549 1550 1551 1551 1551 1551 1552 1552 1553 1553 1554 1554 1554 1555 1555 1555 1556 1556 1557 1557 1558 1558 1558 1558 1559 1559 1560 1561 1561 1562 1563 1563 1564
1522 1523 1525 1527 1529 1530 1532 1534 1536 1537 1539 1540 1541 1542 1543 1544 1545 1546 1547 1548 1548 1549 1549 1550 1550 1550 1550 1551 1552 1552 1553 1553 1554 1554 1554 1555 1555 1556 1556 1557 1557 1557 1558 1558 1559 1559 1560 1561 1561 1562 1563 1563
1519 1520 1522 1525 1526 1528 1530 1532 1533 1535 1537 1538 1539 1540 1541 1543 1543 1544 1545 1546 1547 1547 1548 1548 1548 1548 1549 1549 1550 1551 1551 1552 1552 1553 1553 1554 1554 1555 1555 1556 1556 1557 1557 1557 1558 1558 1559 1560 1560 1561 1562 1562
1516 1518 1520 1522 1524 1526 1528 1529 1531 1533 1534 1536 1537 1538 1540 1541 1541 1542 1543 1544 1545 1545 1546 1546 1547 1547 1547 1548 1548 1549 1550 1550 1551 1551 1552 1552 1553 1554 1554 1555 1555 1556 1556 1556 1557 1557 1558 1559 1559 1560 1561 1561
1514 1516 1517 1519 1522 1524 1525 1527 1528 1530 1532 1533 1535 1536 1538 1538 1539 1540 1541 1542 1543 1543 1544 1544 1545 1545 1546 1546 1547 1547 1548 1549 1549 1550 1550 1551 1552 1552 1553 1554 1554 1555 1555 1555 1556 1556 1557 1557 1558 1559 1559 1560
1511 1513 1515 1517 1519 1521 1523 1524 1526 1527 1529 1530 1532 1534 1535 1536 1537 1538 1539 1540 1541 1541 1542 1543 1543 1543 1544 1544 1545 1545 1546 1547 1548 1548 1549 1549 1550 1551 1552 1552 1553 1553 1554 1554 1555 1555 1556 1556 1557 1558 1558 1559
1508 1510 1512 1514 1516 1518 1520 1521 1523 1524 1526 1528 1529 1531 1532 1533 1534 1536 1537 1538 1539 1539 1540 1541 1541 1542 1542 1543 1543 1544 1544 1545 1546 1546 1547 1548 1549 1549 1550 1551 1552 1552 1553 1553 1554 1554 1555 1555 1556 1556 1557 1557
1505 1507 1509 1511 1513 1515 1517 1518 1520 1521 1523 1525 1526 1528 1529 1530 1532 1533 1534 1535 1537 1537 1538 1539 1539 1540 1540 1541 1541 1542 1543 1543 1544 1545 1545 1546 1547 1548 1549 1549 1550 1551 1551 1552 1552 1553 1554 1554 1555 1555 1556 1556
1502 1504 1506 1507 1509 1511 1513 1514 1517 1518 1520 1521 1523 1524 1526 1527 1529 1530 1532 1533 1534 1535 1536 1536 1537 1538 1538 1539 1539 1540 1540 1541 1542 1543 1543 1544 1545 1546 1547 1547 1548 1549 1550 1550 1551 1552 1552 1553 1553 1554 1554 1555
1499 1501 1502 1504 1506 1507 1509 1511 1513 1515 1517 1518 1519 1521 1522 1524 1525 1527 1529 1530 1532 1533 1533 1534 1535 1535 1536 1537 1537 1538 1538 1539 1540 1541 1541 1542 1543 1544 1545 1546 1547 1547 1548 1549 1550 1550 1551 1551 1552 1552 1553 1553
1496 1498 1500 1501 1502 1504 1506 1507 1509 1511 1513 1514 1516 1517 1519 1520 1522 1524 1526 1528 1529 1530 1531 1531 1532 1533 1534 1534 1535 1536 1536 1537 1538 1539 1539 1540 1541 1542 1543 1544 1544 1545 1546 1547 1548 1548 1549 1550 1550 1551 1551 1552
1494 1495 1497 1498 1499 1501 1502 1504 1505 1507 1509 1510 1512 1513 1515 1517 1519 1521 1523 1524 1525 1527 1528 1529 1530 1530 1531 1532 1533 1534 1534 1535 1536 1537 1537 1538 1539 1540 1541 1542 1542 1543 1544 1545 1546 1546 1547 1548 1548 1549 1549 1550
1492 1493 1494 1495 1497 1498 1498 1500 1501 1503 1504 1506 1509 1510 1512 1515 1516 1517 1519 1521 1522 1523 1525 1526 1527 1528 1529 1530 1530 1531 1532 1533 1534 1535 1535 1536 1537 1538 1539 1540 1540 1541 1542 1543 1543 1544 1545 1545 1546 1547 1547 1548
1488 1490 1491 1492 1493 1494 1494 1496 1498 1500 1500 1502 1505 1508 1509 1511 1512 1514 1516 1518 1519 1520 1521 1522 1523 1525 1526 1527 1528 1529 1530 1531 1532 1533 1534 1534 1535 1536 1537 1537 1538 1539 1540 1540 1541 1542 1543 1543 1544 1544 1545 1546
1483 1485 1487 1488 1489 1489 1491 1493 1495 1496 1497 1499 1502 1505 1506 1506 1508 1510 1512 1514 1515 1517 1518 1519 1520 1522 1523 1524 1526 1527 1528 1529 1529 1530 1531 1532 1533 1533 1534 1535 1536 1537 1538 1538 1539 1540 1540 1541 1542 1542 1543 1543
1479 1481 1482 1483 1485 1486 1488 1490 1492 1492 1494 1497 1499 1501 1502 1503 1504 1506 1507 1509 1511 1513 1514 1515 1517 1519 1520 1522 1523 1524 1525 1526 1527 1528 1529 1529 1530 1531 1532 1532 1533 1534 1535 1536 1537 1538 1539 1539 1539 1540 1540 1540
1476 1477 1479 1480 1482 1484 1485 1487 1488 1490 1492 1494 1495 1497 1498 1499 1501 1502 1504 1506 1507 1509 1510 1511 1513 1516 1517 1518 1520 1521 1522 1522 1524 1525 1526 1527 1528 1528 1529 1529 1530 1532 1533 1534 1535 1537 1537 1538 1538 1537 1536 1537
1474 1475 1477 1478 1480 1481 1482 1482 1484 1486 1488 1488 1490 1492 1494 1495 1496 1498 1499 1501 1503 1505 1507 1508 1510 1511 1513 1514 1516 1517 1518 1519 1520 1522 1523 1524 1525 1526 1526 1527 1528 1529 1530 1531 1533 1534 1535 1536 1536 1535 1534 1534
1472 1473 1474 1476 1477 1478 1478 1478 1479 1480 1482 1483 1485 1487 1490 1491 1492 1494 1495 1496 1498 1500 1502 1504 1506 1507 1509 1510 1512 1513 1514 1516 1517 1518 1520 1521 1522 1523 1524 1525 1525 1526 1528 1528 1530 1531 1532 1532 1533 1532 1532 1532
1470 1471 1471 1472 1473 1473 1473 1474 1474 1475 1477 1479 1481 1484 1486 1488 1489 1490 1491 1492 1494 1495 1497 1499 1501 1502 1503 1505 1507 1509 1510 1512 1513 1515 1516 1518 1519 1520 1521 1523 1522 1522 1524 1526 1527 1528 1528 1528 1529 1530 1530 1531
1467 1468 1469 1469 1469 1469 1470 1470 1471 1472 1475 1476 1478 1481 1482 1484 1484 1485 1486 1488 1489 1491 1492 1493 1495 1497 1499 1500 1502 1505 1506 1507 1509 1511 1513 1514 1515 1516 1518 1519 1519 1519 1521 1522 1522 1524 1524 1525 1526 1527 1528 1529